#timestamp,LO_Frequency,Hit,StdDev 
1514282415.9,286047000.7,N
1514282435.7,286046999.2,N
1514282455.6,286046996.6,N
1514282475.4,286046998.1,N
1514282495.2,286047000.9,N
1514282515.1,286046999.0,N
1514282516.0,286046999.0,N
1514282535.8,286046998.8,N
1514282555.6,286046998.8,N
1514282575.5,286046998.9,N
1514282595.3,286046997.2,N
1514282615.2,286046998.4,N
1514282635.9,286046994.9,N
1514282655.7,286046997.3,N
1514282675.6,286046999.1,N
1514282695.4,286046999.8,N
1514282715.2,286047001.7,N
1514282735.1,286047011.9,Y
1514282736.0,286046999.9,P
1514282755.8,286047002.7,P
1514282775.7,286047002.7,N
1514282795.5,286047000.0,N
1514282815.3,286046998.6,N
1514282835.2,286046999.3,N
1514282855.0,286047000.2,N
1514282855.9,286047000.2,N
1514282875.8,286047000.8,N
1514282895.6,286046996.7,N
1514282915.4,286046994.9,Y
1514282935.3,286046997.8,P
1514282955.1,286046997.1,N
1514282975.8,286046998.3,N
1514282995.7,286046997.1,N
1514283015.5,286047001.2,N
1514283035.4,286047000.8,N
1514283055.2,286047001.1,N
1514283075.0,286047002.2,N
1514283075.9,286047002.2,N
1514283095.8,286047001.6,N
1514283115.6,286046998.6,N
1514283135.5,286047002.6,N
1514283155.3,286047002.2,N
1514283175.1,286047002.0,N
1514283195.9,286047001.9,N
1514283215.7,286046999.4,N
1514283235.5,286046998.8,N
1514283255.4,286046998.5,N
1514283275.2,286046998.4,N
1514283295.1,286046998.9,N
1514283296.0,286046998.9,N
1514283315.8,286046998.5,N
1514283335.6,286046999.2,N
1514283355.5,286046998.7,N
1514283375.3,286046999.4,N
1514283395.1,286046997.1,N
1514283415.9,286046999.6,N
1514283435.7,286046996.6,N
1514283455.6,286046997.4,N
1514283475.4,286046996.5,N
1514283495.2,286047000.7,N
1514283515.1,286047001.1,N
1514283516.0,286047001.1,N
1514283535.8,286046999.5,N
1514283555.7,286046997.9,N
1514283575.5,286046997.3,N
1514283595.3,286046996.5,N
1514283615.2,286046999.2,N
1514283635.0,286046998.9,N
1514283635.9,286046998.9,N
1514283655.7,286046999.3,N
1514283675.6,286046999.2,N
1514283695.4,286046999.3,N
1514283715.3,286046996.0,N
1514283735.1,286046996.2,N
1514283755.8,286046993.1,Y
1514283775.7,286046991.9,P
1514283795.5,286046993.0,N
1514283815.4,286046991.8,N
1514283835.2,286046991.7,N
1514283855.0,286046994.8,N
1514283855.9,286046994.8,N
1514283875.8,286046995.1,N
1514283895.6,286046995.7,N
1514283915.4,286046997.5,N
1514283935.3,286046993.3,N
1514283955.1,286046993.9,N
1514283975.9,286046996.1,N
1514283995.7,286046995.0,N
1514284015.5,286046994.4,N
1514284035.4,286046995.1,N
1514284055.2,286046993.4,Y
1514284075.1,286047000.4,P
1514284076.0,286047000.4,N
1514284095.8,286046999.9,N
1514284115.6,286047000.4,N
1514284135.5,286046999.5,N
1514284155.3,286047000.2,N
1514284175.1,286046998.2,N
1514284195.9,286047000.7,N
1514284215.7,286046997.5,N
1514284235.6,286046994.1,Y
1514284255.4,286046995.8,P
1514284275.2,286046994.9,P
1514284295.1,286046996.4,N
1514284296.0,286046996.4,N
1514284315.8,286046996.2,N
1514284335.7,286046994.9,Y
1514284355.5,286046998.2,P
1514284375.3,286046998.6,N
1514284395.2,286046999.7,N
1514284415.0,286047000.1,N
1514284415.9,286047000.1,N
1514284435.8,286046997.0,N
1514284455.6,286046996.8,N
1514284475.4,286046997.9,N
1514284495.3,286046994.9,Y
1514284515.1,286046999.1,P
1514284535.8,286047000.7,N
1514284555.7,286047000.3,N
1514284575.5,286047001.2,N
1514284595.4,286046999.2,N
1514284615.2,286046999.5,N
1514284635.0,286046996.9,Y
1514284635.9,286046996.9,P
1514284655.8,286046997.9,N
1514284675.6,286046996.8,N
1514284695.5,286046997.2,N
1514284715.3,286046998.3,N
1514284735.1,286046998.5,N
1514284755.9,286046997.6,N
1514284775.7,286046999.5,N
1514284795.5,286046999.6,N
1514284815.4,286046998.3,N
1514284835.2,286046998.7,N
1514284855.1,286046998.5,N
1514284856.0,286046998.5,N
1514284875.8,286046998.3,N
1514284895.6,286047000.0,N
1514284915.5,286047000.3,N
1514284935.3,286047000.0,N
1514284955.1,286047000.6,N
1514284975.9,286046998.1,N
1514284995.7,286047002.1,N
1514285015.6,286047003.6,N
1514285035.4,286047005.9,Y
1514285055.2,286047005.0,P
1514285075.1,286047007.5,N
1514285076.0,286047007.5,N
1514285095.8,286047004.9,N
1514285115.7,286047004.8,N
1514285135.5,286047007.0,N
1514285155.3,286047005.5,N
1514285175.2,286047003.0,N
1514285195.0,286047005.3,N
1514285195.9,286047005.3,N
1514285215.7,286047007.5,Y
1514285235.6,286047002.2,P
1514285255.4,286047003.5,N
1514285275.3,286047003.1,N
1514285295.1,286047004.3,Y
1514285315.8,286047002.8,P
1514285335.7,286047002.8,P
1514285355.5,286047003.4,P
1514285375.4,286047002.1,Y
1514285395.2,286046999.1,P
1514285415.0,286046998.5,N
1514285415.9,286046998.5,N
1514285435.8,286046996.6,N
1514285455.6,286046997.2,N
1514285475.5,286046999.3,N
1514285495.3,286046999.0,N
1514285515.1,286046996.8,N
1514285535.9,286046997.3,N
1514285555.7,286046999.1,N
1514285575.5,286046996.7,N
1514285595.4,286046998.7,N
1514285615.2,286046996.8,N
1514285635.1,286046997.0,N
1514285636.0,286046997.0,N
1514285655.8,286046999.2,N
1514285675.6,286046998.3,N
1514285695.5,286046998.1,N
1514285715.3,286047000.9,N
1514285735.2,286046999.1,N
1514285755.9,286046999.0,N
1514285775.7,286046998.5,N
1514285795.6,286046999.9,N
1514285815.4,286046998.3,N
1514285835.2,286047000.9,N
1514285855.1,286047001.1,N
1514285856.0,286047001.1,N
1514285875.8,286047000.2,N
1514285895.7,286046999.8,N
1514285915.5,286046999.3,N
1514285935.3,286046999.0,N
1514285955.2,286047000.5,N
1514285975.0,286047002.6,N
1514285975.9,286047002.6,N
1514285995.8,286047002.7,N
